Temp_Advection
nan nan nan nan nan nan nan nan nan nan nan nan nan nan nan nan nan nan nan nan nan nan nan nan nan nan nan nan nan nan nan nan
nan 0 0 0 0 0 0 0 0 0 0 1 0 -0 -0 -0 0 -0 -1 -0 1 1 0 1 0 0 -0 -0 -0 0 0 nan
nan 0 0 0 0 0 0 0 0 0 0 0 -0 -0 0 0 -0 -0 -0 0 0 0 0 1 0 0 0 -0 -0 0 0 nan
nan 0 0 0 0 0 0 0 0 0 0 0 0 0 0 0 -0 0 0 0 0 1 0 0 0 0 0 0 0 0 0 nan
nan 0 0 0 0 0 0 0 0 0 0 0 0 0 0 0 0 0 0 0 0 1 -0 -0 -0 -0 -0 0 0 -0 -0 nan
nan 1 0 0 0 1 0 0 0 0 0 0 0 0 0 0 0 0 0 0 0 0 -0 -0 -0 -0 -0 -0 0 -0 -0 nan
nan 0 0 0 0 1 1 0 0 0 0 0 0 0 0 0 0 0 1 0 0 -0 -0 -0 -0 0 0 0 0 0 0 nan
nan 0 0 0 -0 0 0 1 0 0 0 0 0 0 0 0 0 0 0 0 0 0 0 0 0 1 1 0 0 0 0 nan
nan 0 0 -0 -0 1 0 1 0 -0 0 0 0 0 0 0 0 0 0 0 0 0 1 1 1 1 1 1 0 0 -0 nan
nan 0 -0 0 0 1 1 0 0 0 0 0 0 0 1 0 0 0 0 0 0 0 0 0 1 0 0 1 0 0 -0 nan
nan -0 -0 1 0 1 0 0 -0 0 0 0 0 1 1 0 0 0 0 -0 0 0 0 0 0 0 1 1 -0 -0 -0 nan
nan 0 1 1 0 1 1 1 0 0 0 1 1 1 0 0 -0 0 -0 0 0 0 0 1 1 1 0 0 -0 -0 1 nan
nan 1 0 0 0 1 1 1 0 -0 0 1 1 1 0 0 -0 0 -0 0 0 0 1 1 0 0 0 0 0 0 1 nan
nan -0 0 0 1 1 2 1 0 1 1 1 0 0 -0 -0 -0 -0 0 0 0 0 1 0 -0 0 -0 -0 1 1 0 nan
nan -0 1 1 2 1 2 1 0 0 0 -0 0 1 -0 0 -0 0 0 0 0 1 0 0 0 0 0 -0 -1 -0 0 nan
nan 0 1 1 1 0 2 1 -0 -0 0 1 1 0 0 0 0 0 0 0 1 1 1 1 0 -0 -0 0 -1 -1 -0 nan
nan 1 0 0 0 2 3 1 0 1 1 1 0 0 0 0 0 0 0 0 0 0 0 -0 0 0 -0 0 0 -0 -0 nan
nan 1 0 1 1 2 1 -0 0 0 0 0 0 0 0 0 0 0 -0 0 1 0 -0 0 0 0 0 -0 0 -0 -0 nan
nan 1 1 1 2 2 0 0 0 0 0 0 -0 0 -0 -0 -0 -0 0 0 0 0 0 0 1 0 1 0 0 0 0 nan
nan nan nan nan nan nan nan nan nan nan nan nan nan nan nan nan nan nan nan nan nan nan nan nan nan nan nan nan nan nan nan nan
Wind_Speed
17 18 16 15 12 10 9 9 10 11 12 14 15 15 18 18 21 21 22 15 18 17 20 18 19 22 24 25 21 20 20 20
18 20 19 16 13 11 9 9 11 12 13 14 16 17 17 19 23 22 21 16 24 21 23 20 21 23 26 25 21 20 17 16
22 19 20 18 16 14 11 10 12 13 14 15 17 17 16 19 20 20 18 14 17 21 22 21 21 23 26 24 19 19 17 17
25 23 20 20 18 15 11 11 12 12 14 15 17 16 17 18 17 16 14 12 11 22 24 21 23 25 26 23 19 18 17 15
27 25 21 20 20 16 11 9 11 12 13 15 17 17 18 19 16 18 20 20 17 18 22 21 23 26 26 25 20 14 21 15
30 27 23 21 21 18 12 10 10 8 8 14 18 17 18 19 18 21 24 23 19 24 20 23 25 26 25 26 22 14 18 18
33 30 24 21 24 21 14 13 11 7 9 12 16 16 15 17 19 21 25 23 22 31 25 23 26 27 26 27 24 15 17 16
37 34 27 23 24 25 19 18 14 14 14 15 16 16 16 18 20 23 27 26 22 27 28 25 22 25 28 29 25 20 16 17
37 36 31 27 25 27 20 22 20 20 18 17 16 15 17 19 21 24 27 29 25 26 28 25 24 26 29 31 24 18 17 14
36 41 37 32 26 25 23 29 24 22 21 19 17 15 16 19 21 23 25 25 26 26 27 25 28 28 30 29 21 20 17 12
40 42 41 36 26 24 25 27 30 27 22 22 21 18 21 22 22 23 25 24 24 24 26 28 29 29 32 32 27 23 18 20
42 44 43 34 28 28 26 23 22 25 23 22 17 19 22 24 25 23 26 24 26 26 26 26 29 33 37 28 30 25 22 16
41 48 44 36 32 32 29 27 25 22 20 19 18 21 24 24 26 25 24 26 27 28 25 26 24 41 35 28 21 18 23 18
42 48 45 38 33 30 28 27 23 17 18 19 20 23 26 24 25 26 27 24 27 29 24 22 29 37 33 33 24 25 21 20
45 48 43 37 31 25 27 22 17 18 21 21 20 22 24 24 25 25 23 23 26 29 25 28 35 40 37 33 27 16 28 23
44 43 39 33 29 29 32 29 27 22 17 14 17 20 21 24 23 24 23 22 25 30 29 40 42 44 36 30 28 29 32 21
40 39 37 31 28 30 31 28 23 19 16 15 17 18 18 22 23 23 26 24 30 31 36 32 40 44 39 32 29 18 31 22
41 37 33 31 28 30 29 27 25 21 19 16 19 19 21 20 20 20 23 25 27 30 33 34 44 40 37 35 32 22 23 25
43 41 36 32 30 31 28 22 22 17 18 19 20 22 22 21 19 20 22 24 29 32 37 46 45 43 42 38 32 22 21 22
43 38 36 33 30 31 26 21 21 18 15 18 17 18 19 19 18 20 22 23 33 32 29 43 44 40 40 36 30 31 22 21
Wind_Direction
196 193 191 195 199 207 216 223 227 224 223 221 210 212 217 215 216 215 210 194 200 205 194 182 175 164 166 166 164 166 163 158
207 201 200 204 205 214 222 232 231 223 222 214 205 216 217 218 220 220 222 225 229 232 200 186 173 169 169 168 166 165 165 165
224 211 205 207 210 218 224 231 231 223 219 216 218 221 217 222 221 222 230 222 218 220 196 182 172 175 175 168 166 165 160 157
235 226 211 209 211 219 222 231 229 223 222 221 226 225 221 230 230 224 204 208 227 215 193 174 178 180 179 172 166 169 180 180
241 244 231 213 214 218 219 222 217 216 220 223 227 227 225 230 224 209 209 211 222 208 179 172 185 184 182 178 170 163 190 198
235 243 233 223 216 221 224 211 195 199 210 222 227 230 231 229 223 213 206 209 214 186 181 174 187 187 185 181 190 198 182 195
228 235 235 226 215 218 218 205 207 207 220 234 235 231 233 225 219 210 211 211 206 198 196 193 189 190 188 183 194 194 179 192
226 224 234 223 217 216 200 206 201 209 220 231 231 230 231 224 219 213 213 214 216 206 202 197 194 201 191 183 190 194 191 190
223 220 224 224 223 218 196 203 199 209 217 225 228 223 223 225 216 211 212 217 227 211 198 204 211 210 200 180 190 196 178 180
231 211 217 229 225 219 207 202 210 211 214 222 222 217 216 219 224 221 219 220 217 206 206 209 207 203 192 178 184 183 189 196
224 210 215 223 220 222 212 203 210 218 218 223 228 219 216 217 223 223 222 220 211 213 209 206 209 204 193 176 182 191 200 220
221 209 213 218 221 223 214 213 207 208 214 224 218 217 218 219 221 221 223 217 211 212 210 216 216 209 178 175 193 194 216 194
217 201 208 213 221 221 211 213 208 210 212 216 215 215 225 219 222 217 214 216 218 221 213 218 225 206 179 176 182 192 192 199
212 199 205 210 224 219 216 215 215 210 213 210 211 218 222 221 222 220 221 219 209 204 217 224 194 169 169 170 164 171 183 200
205 197 204 208 215 211 213 213 210 201 209 218 217 212 215 218 223 224 222 214 212 213 210 189 176 176 169 170 151 168 180 191
193 195 201 209 214 211 216 208 201 208 215 210 206 209 213 218 218 222 220 218 223 220 207 194 182 179 179 186 180 186 176 185
193 197 200 208 218 213 211 210 211 211 213 200 203 207 208 215 222 226 226 227 218 222 209 203 193 185 185 185 182 183 192 186
195 199 206 212 212 214 213 211 205 204 198 191 198 204 209 212 214 223 222 222 224 223 219 210 191 191 192 192 194 194 198 206
194 197 202 204 207 210 213 213 204 198 195 197 202 210 210 218 220 221 228 233 235 222 210 194 195 193 188 190 193 195 202 211
192 198 198 204 201 206 205 195 195 200 196 204 218 218 215 211 218 230 235 231 227 212 213 204 195 194 192 190 193 200 215 210
Height
1474 1475 1477 1480 1482 1484 1485 1487 1489 1491 1493 1496 1498 1500 1503 1507 1508 1510 1513 1517 1517 1519 1525 1525 1530 1533 1536 1538 1540 1542 1544 1546
1472 1473 1475 1477 1480 1482 1483 1484 1487 1488 1490 1493 1495 1497 1500 1502 1506 1509 1512 1514 1518 1516 1522 1525 1528 1532 1535 1538 1540 1542 1545 1547
1470 1472 1472 1474 1477 1479 1481 1482 1484 1485 1488 1490 1492 1495 1497 1499 1503 1507 1509 1513 1512 1514 1513 1523 1528 1531 1534 1537 1540 1543 1546 1548
1467 1469 1469 1471 1473 1476 1478 1479 1482 1483 1485 1487 1489 1492 1494 1496 1500 1503 1506 1509 1510 1514 1506 1521 1525 1530 1533 1536 1540 1541 1544 1547
1464 1466 1468 1468 1469 1472 1475 1476 1479 1481 1482 1485 1486 1489 1491 1494 1498 1501 1503 1505 1508 1510 1512 1519 1524 1528 1532 1535 1538 1539 1542 1546
1459 1462 1464 1465 1466 1468 1471 1473 1476 1478 1480 1481 1482 1485 1488 1491 1494 1498 1500 1502 1506 1509 1511 1515 1521 1526 1530 1533 1537 1537 1539 1543
1452 1455 1459 1462 1463 1465 1468 1470 1473 1476 1477 1478 1479 1482 1484 1488 1491 1495 1497 1500 1503 1507 1512 1515 1518 1523 1527 1530 1534 1536 1539 1542
1446 1449 1453 1457 1459 1461 1465 1466 1470 1472 1474 1475 1477 1480 1482 1486 1488 1491 1495 1497 1501 1505 1509 1512 1516 1521 1524 1529 1531 1534 1537 1540
1439 1445 1448 1451 1454 1457 1461 1463 1466 1468 1470 1472 1475 1476 1479 1483 1486 1488 1492 1495 1499 1503 1507 1510 1514 1518 1520 1525 1529 1532 1535 1538
1432 1437 1442 1444 1449 1454 1458 1461 1462 1465 1466 1469 1471 1474 1477 1480 1483 1485 1490 1492 1495 1499 1503 1507 1510 1513 1517 1522 1526 1529 1533 1537
1425 1430 1435 1439 1445 1449 1454 1457 1460 1462 1464 1467 1468 1470 1474 1477 1480 1482 1486 1488 1493 1497 1500 1504 1506 1509 1515 1520 1525 1527 1532 1536
1420 1422 1428 1436 1441 1443 1449 1452 1455 1458 1460 1463 1465 1468 1471 1474 1477 1480 1482 1486 1490 1493 1496 1500 1504 1502 1510 1517 1524 1527 1530 1535
1414 1416 1421 1429 1434 1437 1443 1446 1450 1453 1456 1459 1460 1464 1468 1471 1472 1476 1479 1483 1485 1490 1493 1496 1498 1496 1505 1515 1521 1526 1530 1532
1406 1411 1415 1422 1427 1432 1438 1442 1446 1449 1452 1455 1456 1460 1464 1466 1469 1472 1474 1478 1481 1486 1488 1490 1493 1497 1503 1512 1519 1526 1529 1531
1399 1406 1411 1417 1422 1429 1434 1440 1444 1445 1446 1448 1451 1455 1459 1462 1465 1468 1470 1474 1477 1481 1484 1487 1489 1496 1502 1507 1512 1519 1525 1530
1394 1401 1408 1413 1418 1424 1427 1431 1434 1438 1441 1444 1448 1451 1455 1458 1461 1464 1466 1470 1474 1477 1480 1483 1486 1492 1500 1505 1507 1512 1518 1525
1390 1397 1402 1407 1412 1418 1424 1430 1434 1436 1439 1441 1445 1448 1451 1454 1457 1460 1462 1465 1468 1472 1473 1479 1485 1487 1495 1501 1506 1511 1515 1518
1385 1391 1397 1402 1407 1413 1421 1428 1432 1434 1436 1438 1442 1446 1448 1451 1454 1456 1459 1461 1463 1466 1469 1472 1477 1485 1491 1498 1504 1507 1512 1516
1379 1387 1392 1398 1404 1409 1418 1425 1429 1431 1433 1436 1440 1442 1444 1447 1450 1452 1454 1456 1457 1459 1463 1466 1473 1480 1486 1493 1501 1506 1511 1513
1375 1384 1389 1394 1401 1410 1417 1422 1426 1429 1431 1435 1437 1438 1441 1444 1447 1448 1450 1451 1450 1453 1459 1464 1470 1477 1484 1491 1497 1502 1508 1510